sat.trackr.live / text

‹ back to catalog

STARLINK-33642

NORAD 63978 · 2025-099AC

PAYLOAD ACTIVE UNKNOWN

§ Identity

Operator
Country
US
Launch date
2025-05-13
Launch site
AFETR
Launch vehicle
Mass (kg)
RCS (m²)

Purposes: comms

External: N2YO · Heavens-Above · Gunter

§ Orbital elements

Epoch: 2026-05-25T04:04:25.293216Z

Period
94.27 min
Inclination
42.9990°
Eccentricity
0.0001453
Mean motion
15.27592779 rev/d
Perigee alt
482.0 km
Apogee alt
484.0 km
Semi-major
6,861.1 km
B*
6.3165e-4
RAAN
100.7639°
Arg perigee
275.1683°
Mean anomaly
84.9003°
Rev number
5,898

§ Raw data

STARLINK-336421 63978U 25099AC  26145.16973719  .00017167  00000+0  63165-3 0  99942 63978  42.9990 100.7639 0001453 275.1683  84.9003 15.27592779 58987

JSON: /api/v1/satellites/63978 · /tle

For live sub-satellite position, see the globe view (requires WebGL).

§ Visibility from observer

Set your observer location to see the next 7 days of passes ≥ 10°. The values pass through the URL so the page stays shareable.

No JS? Fill the form by hand. The geolocation button needs JavaScript.